Flag for U.S.A. Weather past 2 weeks in Fayetteville, North Carolina, U.S.A.

Now
83 °F

Scattered clouds.


Feels Like: 85 °F
Forecast: 71 / 84 °F
Wind: 14 mph from West

Location: Fayetteville Regional Airport

Current Time: May 27, 2015 at 12:17:45 PM

Latest Report: May 27, 2015 at 11:53 AM


Visibility: 10 mi

Pressure: 30.23 "Hg

Humidity: 59%

Dew point: 67 °F

Location of FayettevilleLocation

Historic Weather in Fayetteville — Graph

°F

Fayetteville temperature yesterday

Maximum temperature yesterday: 88 °F (at 3:53 PM)
Minimum temperature yesterday: 60 °F (at 5:57 AM)
Average temperature yesterday: 75 °F

Past Weeks' High & Low Weather Summary

 TemperatureHumidityPressure
High92 °F (May 12, 2:53 PM)97% (May 15, 5:53 AM)30.40 "Hg (May 15, 5:53 AM)
Low51 °F (May 23, 4:53 AM)27% (May 13, 3:53 PM)29.74 "Hg (May 21, 1:53 PM)
Average73 °F65%30.16 "Hg
* Reported May 12 10:53 AM — May 27 10:53 AM, Fayetteville, Weather by CustomWeather, © 2015

Note: Actual official high and low records may vary slightly from our data, if they occured in-between our weather recording intervals... More about our weather records

Advertising

Fayetteville weather history for previous 24 hours

 ConditionsComfort  
Time TempWeatherWind HumidityBarometerVisibility
10:53 AM
Wed, May 27
83 °FBroken clouds.10 mph61%30.23 "Hg10 mi
9:53 AM79 °FPartly sunny.10 mph72%30.24 "Hg10 mi
8:53 AM74 °FMore clouds than sun.12 mph88%30.25 "Hg10 mi
8:00 AM73 °FMore clouds than sun.7 mph88%30.25 "Hg10 mi
6:53 AM70 °FLow clouds.5 mph93%30.21 "Hg10 mi
5:53 AM70 °FLow clouds.3 mph93%30.19 "Hg10 mi
4:53 AM71 °FOvercast.5 mph90%30.18 "Hg10 mi
3:53 AM72 °FOvercast.7 mph91%30.18 "Hg10 mi
2:53 AM72 °FMostly cloudy.5 mph87%30.19 "Hg10 mi
1:53 AM72 °FOvercast.6 mph87%30.21 "Hg10 mi
12:53 AM73 °FClear.9 mph84%30.23 "Hg10 mi
11:53 PM
Tue, May 26
74 °FClear.9 mph82%30.23 "Hg10 mi
10:53 PM75 °FClear.8 mph82%30.23 "Hg10 mi
9:53 PM76 °FClear.13 mph77%30.20 "Hg10 mi
8:53 PM78 °FSunny.13 mph71%30.18 "Hg10 mi
7:53 PM81 °FPartly sunny.10 mph67%30.19 "Hg10 mi
6:53 PM83 °FPassing clouds.13 mph65%30.16 "Hg10 mi
5:53 PM85 °FPassing clouds.15 mph61%30.16 "Hg10 mi
4:53 PM86 °FScattered clouds.8 mph55%30.16 "Hg10 mi
3:53 PM88 °FPartly sunny.10 mph50%30.18 "Hg10 mi
2:53 PM86 °FPassing clouds.7 mph51%30.21 "Hg10 mi
1:53 PM85 °FBroken clouds.7 mph57%30.23 "Hg10 mi
12:53 PM83 °FPartly sunny.5 mph59%30.25 "Hg10 mi
Weather by CustomWeather, © 2015

See weather overviewHow to use our weather pages